This demonstration page uses our WeatherBlox Daily Observations layout. Learn more.

Left ArrowRight Arrow

Hourly Observations for July 3, 2018

Temp ( °F °C ) Dew Point ( °F °C ) Humidity (%) Winds ( mph kmh ) Pressure ( in mb ) Visibility ( mi km ) Precip ( " mm )
12:15 am 00:15 Clear 80 26.5 72 22 76 76 SE 12 19 29.80 1009 10 16 N/A
12:35 am 00:35 Clear 80 26.5 72 22 76 76 SE 12 19 29.80 1009 10 16 N/A
12:55 am 00:55 Clear 79 26.2 72 22 78 78 SE 13 20 29.83 1010 10 16 N/A
1:15 am 01:15 Clear 79 26 71 21.8 78 78 SSE 12 19 29.83 1010 10 16 N/A
1:35 am 01:35 Clear 78 25.7 72 22 80 80 SE 10 17 29.83 1010 10 16 N/A
1:55 am 01:55 Clear 78 25.3 71 21.7 81 81 SE 8 13 29.83 1010 10 16 N/A
2:15 am 02:15 Clear 78 25.3 71 21.7 81 81 SE 10 17 29.83 1010 10 16 N/A
2:35 am 02:35 Clear 77 25 71 21.7 82 82 SSE 13 20 29.83 1010 10 16 N/A
2:55 am 02:55 Clear 76 24.7 71 21.8 84 84 SSE 8 13 29.83 1010 10 16 N/A
3:15 am 03:15 Clear 76 24.3 71 21.9 87 87 SSE 7 11 29.83 1010 10 16 N/A
3:35 am 03:35 Clear 76 24.2 72 22 88 88 SSE 10 17 29.83 1010 10 16 N/A
3:55 am 03:55 Clear 75 24 72 22 89 89 SSE 12 19 29.83 1010 10 16 N/A
4:15 am 04:15 Clear 75 24 72 22.1 89 89 SSE 14 22 29.80 1009 7 11 N/A
4:35 am 04:35 Clear 75 23.7 72 22.1 91 91 SSE 15 24 29.80 1009 7 11 N/A
4:55 am 04:55 Clear 74 23.6 72 22.1 91 91 SSE 16 26 29.80 1009 7 11 N/A
5:15 am 05:15 Clear 74 23.6 72 22.2 92 92 S 14 22 29.80 1009 7 11 N/A
5:35 am 05:35 Clear 74 23.6 72 22.2 92 92 S 17 28 29.80 1009 7 11 N/A
5:55 am 05:55 Clear 74 23.6 72 22.1 91 91 S 16 26 29.80 1009 7 11 N/A
6:15 am 06:15 Sunny with Mist and Fog 74 23.6 72 22.1 91 91 S 13 20 29.80 1009 5 8 N/A
6:35 am 06:35 Sunny with Mist and Fog 74 23.5 72 22.1 92 92 S 14 22 29.80 1009 5 8 N/A
6:55 am 06:55 Sunny with Mist and Fog 74 23.5 72 22.2 92 92 S 15 24 29.80 1009 5 8 N/A
7:15 am 07:15 Partly Cloudy with Mist and Fog 75 23.7 72 22.3 92 92 S 16 26 29.80 1009 5 8 N/A
7:35 am 07:35 Cloudy with Mist and Fog 75 24.1 73 22.5 91 91 S 17 28 29.80 1009 5 8 N/A
7:55 am 07:55 Cloudy 76 24.3 72 22.3 89 89 S 14 22 29.80 1009 7 11 N/A
8:15 am 08:15 Mostly Cloudy 76 24.5 72 22.1 87 87 S 17 28 29.80 1009 7 11 N/A
8:35 am 08:35 Mostly Cloudy 76 24.5 72 22 86 86 S 16 26 29.80 1009 7 11 N/A
8:55 am 08:55 Partly Cloudy 76 24.5 72 22 86 86 S 20 31 29.80 1009 7 11 N/A
9:15 am 09:15 Sunny 77 25.1 72 22.2 84 84 S 16 26 29.80 1009 7 11 N/A
9:35 am 09:35 Sunny 78 25.7 73 22.5 83 83 SSE 15 24 29.80 1009 7 11 N/A
9:55 am 09:55 Sunny 80 26.6 72 22.4 78 78 S 14 22 29.77 1008 10 16 N/A
10:15 am 10:15 Sunny 81 27 73 22.6 77 77 S 9 15 29.77 1008 10 16 N/A
10:35 am 10:35 Sunny 80 26.9 73 22.5 77 77 SSW 7 11 29.77 1008 10 16 N/A
10:55 am 10:55 Sunny 82 27.8 73 22.6 73 73 S 10 17 29.77 1008 10 16 N/A
11:15 am 11:15 Sunny 83 28.1 72 22.3 71 71 S 8 13 29.77 1008 10 16 N/A
11:35 am 11:35 Sunny 84 28.9 73 22.7 69 69 S 9 15 29.77 1008 10 16 N/A
11:55 am 11:55 Sunny 85 29.5 73 22.6 66 66 S 14 22 29.77 1008 10 16 N/A
12:15 pm 12:15 Sunny 85 29.7 72 22 63 63 S 14 22 29.74 1007 10 16 N/A
12:35 pm 12:35 Sunny 86 29.9 72 22.1 63 63 S 9 15 29.74 1007 10 16 N/A
12:55 pm 12:55 Sunny 87 30.6 73 22.5 62 62 SSE 10 17 29.74 1007 10 16 N/A
1:15 pm 13:15 Sunny 87 30.8 70 21.2 57 57 S 14 22 29.74 1007 10 16 N/A
1:35 pm 13:35 Sunny 88 31.2 71 21.6 57 57 S 16 26 29.74 1007 10 16 N/A
1:55 pm 13:55 Sunny 88 31.3 71 21.6 56 56 S 15 24 29.74 1007 10 16 N/A
2:15 pm 14:15 Sunny 89 31.4 71 21.9 57 57 SSE 15 24 29.74 1007 10 16 N/A
2:35 pm 14:35 Sunny 89 31.6 72 22.3 58 58 SSE 13 20 29.74 1007 10 16 N/A
2:55 pm 14:55 Sunny 89 31.8 71 21.4 54 54 S 16 26 29.74 1007 10 16 N/A
3:15 pm 15:15 Sunny 90 32 71 21.4 53 53 S 13 20 29.74 1007 10 16 N/A
3:35 pm 15:35 Sunny 90 32 71 21.4 53 53 S 15 24 29.74 1007 10 16 N/A
3:55 pm 15:55 Sunny 90 32.1 69 20.3 50 50 SSE 14 22 29.74 1007 10 16 N/A
4:15 pm 16:15 Sunny 90 32.3 69 20.8 51 51 SSE 14 22 29.74 1007 10 16 N/A
4:35 pm 16:35 Sunny 91 32.5 68 19.8 47 47 S 14 22 29.74 1007 10 16 N/A
4:55 pm 16:55 Sunny 91 32.5 68 20.1 48 48 SSE 17 28 29.74 1007 10 16 N/A
5:15 pm 17:15 Sunny 90 32.2 70 21.2 52 52 S 8 13 29.74 1007 10 16 N/A
5:35 pm 17:35 Sunny 90 32.2 68 20 48 48 S 12 19 29.74 1007 10 16 N/A
5:55 pm 17:55 Sunny 90 32.2 69 20.7 51 51 SSE 10 17 29.74 1007 10 16 N/A
6:15 pm 18:15 Sunny 90 32.2 70 20.9 51 51 SSE 9 15 29.74 1007 10 16 N/A
6:35 pm 18:35 Sunny 90 32 69 20.8 52 52 SSE 8 13 29.74 1007 10 16 N/A
6:55 pm 18:55 Sunny 89 31.8 71 21.4 54 54 SE 9 15 29.74 1007 10 16 N/A
7:55 pm 19:55 Partly Cloudy 88 30.9 70 21.1 56 56 SE 10 17 29.74 1007 10 16 N/A
8:35 pm 20:35 Sunny 86 29.9 69 20.7 58 58 SE 8 13 29.74 1007 10 16 N/A
8:55 pm 20:55 Sunny 84 28.7 70 21.3 64 64 SE 7 11 29.80 1009 10 16 N/A
9:15 pm 21:15 Clear 83 28.3 71 21.5 67 67 SE 7 11 29.80 1009 10 16 N/A
9:35 pm 21:35 Clear 82 28 71 21.4 67 67 SE 7 11 29.80 1009 10 16 N/A
9:55 pm 21:55 Clear 82 27.5 71 21.4 69 69 SE 7 11 29.83 1010 10 16 N/A
10:15 pm 22:15 Clear 81 27.1 71 21.4 71 71 SE 10 17 29.80 1009 10 16 N/A
10:35 pm 22:35 Clear 82 27.6 69 20.8 67 67 SE 14 22 29.83 1010 10 16 N/A
10:55 pm 22:55 Clear 82 27.5 69 20.6 66 66 SE 10 17 29.83 1010 10 16 N/A
11:15 pm 23:15 Clear 81 27 69 20.3 67 67 SSE 12 19 29.83 1010 10 16 N/A
11:35 pm 23:35 Clear 80 26.6 68 20 67 67 SSE 10 17 29.83 1010 10 16 N/A
11:55 pm 23:55 Clear 80 26.7 68 19.8 66 66 SSE 9 15 29.88 1012 10 16 N/A

Powered by AerisWeather